Regional Weather Roundup
Issued by NWS State College, PA

Home | Current Version | Previous Version | Text Only | Print | Product List | Glossary On
Versions: 1 2 3 4 5 6 7 8 9 10 11 12 13 14 15 16 17 18 19 20 21 22 23 24 25 26 27 28 29 30 31 32 33 34 35 36 37 38 39 40 41 42 43 44 45 46 47 48 49 50
000
ASUS41 KCTP 290810
RWRCTP

REGIONAL WEATHER ROUNDUP
NATIONAL WEATHER SERVICE STATE COLLEGE PA
400 AM EDT SUN MAR 29 2015

Note: "fair" indicates few or no clouds below 12,000 feet with no
significant weather and/or obstructions to visibility.

* = STATION THAT DOES NOT REPORT PRECIPITATION /E.G. RAIN...SNOW...ETC/
    THUNDER OR FOG.

PAZ002>004-007>009-013>016-020>023-029>032-290900-
WESTERN PENNSYLVANIA

CITY           SKY/WX    TMP DP  RH WIND       PRES   REMARKS
ERIE           CLEAR     17  11  77 S6        30.29F WCI   9
MEADVILLE      CLEAR     17  10  74 SW3       30.25F
FRANKLIN*      CLEAR     12   7  79 SW6       30.26S WCI   3
NEW CASTLE     FAIR      14  10  84 CALM      30.32S
BEAVER COUNTY  NOT AVBL
BUTLER*        CLEAR     14   7  73 CALM      30.30S
PITTSBURGH INT CLEAR     18   8  65 CALM      30.30S
PITTSBURGH     CLEAR     18   5  57 W8        30.29S WCI   8
INDIANA*       CLEAR     14   9  79 CALM      30.31S
LATROBE        CLEAR     14   7  73 SW7       30.32S WCI   4
WASHINGTON CO* CLEAR     12   9  85 CALM      30.32S
$$

PAZ004>006-010>012-017>019-024>028-033>037-041-042-045-046-049>053-290900-
CENTRAL PENNSYLVANIA

CITY           SKY/WX    TMP DP  RH WIND       PRES   REMARKS
BRADFORD       CLEAR     11   7  84 NW6       30.17S WCI   1
DUBOIS         CLEAR     13   6  74 W6        30.21S WCI   4
CLEARFIELD     CLEAR     15   7  70 W3        30.23S
JOHNSTOWN      CLEAR     15   6  67 W14       30.17F WCI   0
ALTOONA        CLEAR     18   7  62 NW7       30.24S WCI   9
STATE COLLEGE  CLEAR     18   8  65 W3        30.24R
WILLIAMSPORT   CLEAR     20   8  60 W9        30.24S WCI   9
SELINSGROVE    CLEAR     22   8  55 CALM      30.25S
FT INDIANTOWN  CLEAR     24   4  42 NW8       30.22S WCI  15
CAPITAL CITY   CLEAR     22   6  50 W7        30.25S WCI  13
HARRISBURG     CLEAR     25   7  46 NW13      30.25R WCI  14
YORK           CLEAR     22   8  55 W6        30.25R WCI  14
$$

PAZ038>040-043-044-047-048-054-055-060>062-067>071-290900-
EASTERN PENNSYLVANIA

CITY           SKY/WX    TMP DP  RH WIND       PRES   REMARKS
SCRANTON       MOCLDY    20   5  52 CALM      30.17S
MOUNT POCONO   CLEAR     16   4  59 NW15G24   30.05S WCI   1
ALLENTOWN      PTCLDY    23   6  48 NW7       30.20R WCI  15
QUAKERTOWN*    SUNNY     23   7  50 N9        30.19R WCI  13
READING        CLEAR     23   4  44 NW7       30.21S WCI  15
LANCASTER      CLEAR     22   7  52 W7        30.22S WCI  13
COATESVILLE    SUNNY     23   5  46 NW10      30.19S WCI  12
POTTSTOWN      CLEAR     23   5  46 NW8       30.22R WCI  14
BLUE BELL      CLEAR     27   9  46 NW3       30.19R
DOYLESTOWN     PTCLDY    23   7  50 NW8       30.17R WCI  14
WILLOW GROVE   NOT AVBL
NORTH PHILA    MOCLDY    27   5  39 NW8       30.21R
PHILADELPHIA   MOCLDY    27   5  39 NW13      30.22R
$$



USA.gov is the U.S. government's official web portal to all federal, state and local government web resources and services.